Data supplied by UK-AIR on 1/5/2024
All Data GMT hour ending 
Status: R =Ratified P=Provisional,P*=As supplied
,,Northampton Spring Park,,,,,,,,,,,,,,,,,,,,,,,
Date,time,"Nitric oxide",status,unit,"Nitrogen dioxide",status,unit,"Nitrogen oxides as nitrogen dioxide",status,unit,"Ozone",status,unit,"PM<sub>2.5</sub> particulate matter (Hourly measured)",status,unit
 
01-01-2023,01:00,0.16766,R,ugm-3,2.33002,R,ugm-3,2.58710,R,ugm-3,80.02757,R,ugm-3,0.900,R,ugm-3 (BAM)
01-01-2023,02:00,0.34581,R,ugm-3,0.80952,R,ugm-3,1.33975,R,ugm-3,83.52005,R,ugm-3,3.900,R,ugm-3 (BAM)
01-01-2023,03:00,0.12575,R,ugm-3,0.77735,R,ugm-3,0.97016,R,ugm-3,84.21854,R,ugm-3,3.900,R,ugm-3 (BAM)
01-01-2023,04:00,0.15719,R,ugm-3,0.63675,R,ugm-3,0.87777,R,ugm-3,81.52435,R,ugm-3,3.900,R,ugm-3 (BAM)
01-01-2023,05:00,0.34581,R,ugm-3,0.43993,R,ugm-3,0.97016,R,ugm-3,81.27488,R,ugm-3,3.900,R,ugm-3 (BAM)
01-01-2023,06:00,0.15719,R,ugm-3,1.28353,R,ugm-3,1.52454,R,ugm-3,79.42886,R,ugm-3,2.900,R,ugm-3 (BAM)
01-01-2023,07:00,0.25150,R,ugm-3,1.23132,R,ugm-3,1.61694,R,ugm-3,80.67617,R,ugm-3,5.900,R,ugm-3 (BAM)
01-01-2023,08:00,0.34581,R,ugm-3,2.74984,R,ugm-3,3.28007,R,ugm-3,81.97338,R,ugm-3,3.900,R,ugm-3 (BAM)
01-01-2023,09:00,0.25150,R,ugm-3,2.52486,R,ugm-3,2.91049,R,ugm-3,81.87359,R,ugm-3,3.900,R,ugm-3 (BAM)
01-01-2023,10:00,0.37724,R,ugm-3,2.74784,R,ugm-3,3.32627,R,ugm-3,75.08821,R,ugm-3,4.900,R,ugm-3 (BAM)
01-01-2023,11:00,0.40868,R,ugm-3,2.97682,R,ugm-3,3.60346,R,ugm-3,80.32693,R,ugm-3,4.900,R,ugm-3 (BAM)
01-01-2023,12:00,0.34581,R,ugm-3,3.25802,R,ugm-3,3.78825,R,ugm-3,81.02542,R,ugm-3,3.900,R,ugm-3 (BAM)
01-01-2023,13:00,0.53443,R,ugm-3,3.29219,R,ugm-3,4.11164,R,ugm-3,80.22714,R,ugm-3,7.900,R,ugm-3 (BAM)
01-01-2023,14:00,0.44012,R,ugm-3,4.91514,R,ugm-3,5.58998,R,ugm-3,78.18155,R,ugm-3,8.900,R,ugm-3 (BAM)
01-01-2023,15:00,0.37724,R,ugm-3,6.58229,R,ugm-3,7.16072,R,ugm-3,76.03617,R,ugm-3,6.900,R,ugm-3 (BAM)
01-01-2023,16:00,0.37724,R,ugm-3,6.72088,R,ugm-3,7.29931,R,ugm-3,72.34413,R,ugm-3,8.900,R,ugm-3 (BAM)
01-01-2023,17:00,0.44012,R,ugm-3,8.10282,R,ugm-3,8.77765,R,ugm-3,71.84520,R,ugm-3,7.900,R,ugm-3 (BAM)
01-01-2023,18:00,0.28293,R,ugm-3,7.23507,R,ugm-3,7.66890,R,ugm-3,79.92779,R,ugm-3,4.900,R,ugm-3 (BAM)
01-01-2023,19:00,0.15719,R,ugm-3,7.61268,R,ugm-3,7.85369,R,ugm-3,78.28133,R,ugm-3,4.900,R,ugm-3 (BAM)
01-01-2023,20:00,0.25150,R,ugm-3,7.65286,R,ugm-3,8.03848,R,ugm-3,72.14456,R,ugm-3,2.900,R,ugm-3 (BAM)
01-01-2023,21:00,0.22006,R,ugm-3,13.06005,R,ugm-3,13.39747,R,ugm-3,64.26154,R,ugm-3,1.900,R,ugm-3 (BAM)
01-01-2023,22:00,0.25150,R,ugm-3,10.42475,R,ugm-3,10.81037,R,ugm-3,64.61079,R,ugm-3,5.900,R,ugm-3 (BAM)
01-01-2023,23:00,0.28293,R,ugm-3,8.75961,R,ugm-3,9.19344,R,ugm-3,65.90799,R,ugm-3,3.900,R,ugm-3 (BAM)
01-01-2023,24:00,0.28293,R,ugm-3,7.00408,R,ugm-3,7.43791,R,ugm-3,63.06412,R,ugm-3,2.900,R,ugm-3 (BAM)
02-01-2023,01:00,0.31453,R,ugm-3,5.61398,R,ugm-3,6.09625,R,ugm-3,61.61724,R,ugm-3,0.900,R,ugm-3 (BAM)
02-01-2023,02:00,0.28307,R,ugm-3,4.55380,R,ugm-3,4.98784,R,ugm-3,61.06842,R,ugm-3,3.900,R,ugm-3 (BAM)
02-01-2023,03:00,0.28307,R,ugm-3,4.09196,R,ugm-3,4.52600,R,ugm-3,59.67143,R,ugm-3,5.900,R,ugm-3 (BAM)
02-01-2023,04:00,0.37743,R,ugm-3,2.46941,R,ugm-3,3.04812,R,ugm-3,64.81036,R,ugm-3,4.900,R,ugm-3 (BAM)
02-01-2023,05:00,0.28307,R,ugm-3,1.69041,R,ugm-3,2.12445,R,ugm-3,64.21165,R,ugm-3,1.900,R,ugm-3 (BAM)
02-01-2023,06:00,0.34598,R,ugm-3,2.51763,R,ugm-3,3.04812,R,ugm-3,58.17466,R,ugm-3,2.900,R,ugm-3 (BAM)
02-01-2023,07:00,0.34598,R,ugm-3,4.22643,R,ugm-3,4.75692,R,ugm-3,56.52820,R,ugm-3,2.900,R,ugm-3 (BAM)
02-01-2023,08:00,0.53469,R,ugm-3,6.66191,R,ugm-3,7.48176,R,ugm-3,56.57810,R,ugm-3,2.900,R,ugm-3 (BAM)
02-01-2023,09:00,0.84922,R,ugm-3,10.93656,R,ugm-3,12.23868,R,ugm-3,50.74067,R,ugm-3,5.900,R,ugm-3 (BAM)
02-01-2023,10:00,1.00648,R,ugm-3,8.10914,R,ugm-3,9.65239,R,ugm-3,50.54110,R,ugm-3,5.900,R,ugm-3 (BAM)
02-01-2023,11:00,1.95006,R,ugm-3,12.52767,R,ugm-3,15.51772,R,ugm-3,49.94239,R,ugm-3,4.900,R,ugm-3 (BAM)
02-01-2023,12:00,1.54118,R,ugm-3,11.49201,R,ugm-3,13.85511,R,ugm-3,56.34526,R,ugm-3,3.900,R,ugm-3 (BAM)
02-01-2023,13:00,2.04442,R,ugm-3,13.30667,R,ugm-3,16.44140,R,ugm-3,54.01695,R,ugm-3,1.900,R,ugm-3 (BAM)
02-01-2023,14:00,1.57263,R,ugm-3,11.95180,R,ugm-3,14.36313,R,ugm-3,56.82756,R,ugm-3,1.900,R,ugm-3 (BAM)
02-01-2023,15:00,0.88067,R,ugm-3,10.33413,R,ugm-3,11.68447,R,ugm-3,57.87530,R,ugm-3,3.900,R,ugm-3 (BAM)
02-01-2023,16:00,1.47827,R,ugm-3,13.66673,R,ugm-3,15.93337,R,ugm-3,51.68863,R,ugm-3,4.900,R,ugm-3 (BAM)
02-01-2023,17:00,3.27106,R,ugm-3,25.46568,R,ugm-3,30.48124,R,ugm-3,22.15227,R,ugm-3,7.900,R,ugm-3 (BAM)
02-01-2023,18:00,6.07034,R,ugm-3,34.38205,R,ugm-3,43.68977,R,ugm-3,13.07184,R,ugm-3,12.900,R,ugm-3 (BAM)
02-01-2023,19:00,18.68281,R,ugm-3,48.48019,R,ugm-3,77.12677,R,ugm-3,3.39269,R,ugm-3,21.900,R,ugm-3 (BAM)
02-01-2023,20:00,24.81606,R,ugm-3,49.55971,R,ugm-3,87.61046,R,ugm-3,4.09119,R,ugm-3,19.900,R,ugm-3 (BAM)
02-01-2023,21:00,10.88258,R,ugm-3,44.59937,R,ugm-3,61.28576,R,ugm-3,7.88302,R,ugm-3,22.900,R,ugm-3 (BAM)
02-01-2023,22:00,20.16108,R,ugm-3,41.91846,R,ugm-3,72.83168,R,ugm-3,4.04129,R,ugm-3,20.900,R,ugm-3 (BAM)
02-01-2023,23:00,4.93805,R,ugm-3,33.76284,R,ugm-3,41.33441,R,ugm-3,12.87227,R,ugm-3,13.900,R,ugm-3 (BAM)
02-01-2023,24:00,1.32101,R,ugm-3,25.73088,R,ugm-3,27.75640,R,ugm-3,15.06754,R,ugm-3,15.900,R,ugm-3 (BAM)
03-01-2023,01:00,1.16432,R,ugm-3,22.91526,R,ugm-3,24.70053,R,ugm-3,22.05249,R,ugm-3,12.900,R,ugm-3 (BAM)
03-01-2023,02:00,1.69928,R,ugm-3,21.49480,R,ugm-3,24.10033,R,ugm-3,12.47313,R,ugm-3,11.900,R,ugm-3 (BAM)
03-01-2023,03:00,1.54194,R,ugm-3,16.38043,R,ugm-3,18.74470,R,ugm-3,9.67915,R,ugm-3,11.900,R,ugm-3 (BAM)
03-01-2023,04:00,1.29019,R,ugm-3,14.96583,R,ugm-3,16.94410,R,ugm-3,11.87442,R,ugm-3,16.900,R,ugm-3 (BAM)
03-01-2023,05:00,1.41607,R,ugm-3,14.54198,R,ugm-3,16.71325,R,ugm-3,14.86797,R,ugm-3,10.900,R,ugm-3 (BAM)
03-01-2023,06:00,1.16432,R,ugm-3,22.40740,R,ugm-3,24.19267,R,ugm-3,27.04174,R,ugm-3,13.900,R,ugm-3 (BAM)
03-01-2023,07:00,1.35313,R,ugm-3,26.68865,R,ugm-3,28.76342,R,ugm-3,28.48862,R,ugm-3,12.900,R,ugm-3 (BAM)
03-01-2023,08:00,1.00698,R,ugm-3,18.03173,R,ugm-3,19.57575,R,ugm-3,43.85551,R,ugm-3,8.900,R,ugm-3 (BAM)
03-01-2023,09:00,0.84964,R,ugm-3,15.96452,R,ugm-3,17.26729,R,ugm-3,52.93594,R,ugm-3,6.900,R,ugm-3 (BAM)
03-01-2023,10:00,0.59790,R,ugm-3,13.02634,R,ugm-3,13.94310,R,ugm-3,58.97294,R,ugm-3,3.900,R,ugm-3 (BAM)
03-01-2023,11:00,0.50349,R,ugm-3,9.56990,R,ugm-3,10.34190,R,ugm-3,68.15316,R,ugm-3,7.900,R,ugm-3 (BAM)
03-01-2023,12:00,0.44055,R,ugm-3,8.69684,R,ugm-3,9.37235,R,ugm-3,70.89724,R,ugm-3,3.900,R,ugm-3 (BAM)
03-01-2023,13:00,0.72377,R,ugm-3,14.12608,R,ugm-3,15.23584,R,ugm-3,64.36133,R,ugm-3,12.900,R,ugm-3 (BAM)
03-01-2023,14:00,0.53496,R,ugm-3,12.29180,R,ugm-3,13.11206,R,ugm-3,67.10541,R,ugm-3,8.900,R,ugm-3 (BAM)
03-01-2023,15:00,0.44055,R,ugm-3,9.34321,R,ugm-3,10.01872,R,ugm-3,68.50240,R,ugm-3,4.900,R,ugm-3 (BAM)
03-01-2023,16:00,0.62936,R,ugm-3,7.43779,R,ugm-3,8.40280,R,ugm-3,74.28993,R,ugm-3,2.900,R,ugm-3 (BAM)
03-01-2023,17:00,0.47202,R,ugm-3,8.32541,R,ugm-3,9.04917,R,ugm-3,72.09466,R,ugm-3,2.900,R,ugm-3 (BAM)
03-01-2023,18:00,0.37762,R,ugm-3,7.91613,R,ugm-3,8.49514,R,ugm-3,73.24219,R,ugm-3,4.900,R,ugm-3 (BAM)
03-01-2023,19:00,0.40909,R,ugm-3,7.49852,R,ugm-3,8.12578,R,ugm-3,71.64563,R,ugm-3,2.900,R,ugm-3 (BAM)
03-01-2023,20:00,0.44055,R,ugm-3,4.91097,R,ugm-3,5.58647,R,ugm-3,73.09251,R,ugm-3,1.900,R,ugm-3 (BAM)
03-01-2023,21:00,0.40909,R,ugm-3,3.75882,R,ugm-3,4.38608,R,ugm-3,74.28993,R,ugm-3,0.900,R,ugm-3 (BAM)
03-01-2023,22:00,0.34615,R,ugm-3,2.33174,R,ugm-3,2.86249,R,ugm-3,74.93854,R,ugm-3,0.900,R,ugm-3 (BAM)
03-01-2023,23:00,0.29370,R,ugm-3,1.95046,R,ugm-3,2.40080,R,ugm-3,76.43531,R,ugm-3,-0.100,R,ugm-3 (BAM)
03-01-2023,24:00,0.41958,R,ugm-3,1.01875,R,ugm-3,1.66209,R,ugm-3,82.72177,R,ugm-3,1.900,R,ugm-3 (BAM)
04-01-2023,01:00,0.25187,R,ugm-3,1.21384,R,ugm-3,1.60003,R,ugm-3,79.02972,R,ugm-3,1.900,R,ugm-3 (BAM)
04-01-2023,02:00,0.22039,R,ugm-3,0.76979,R,ugm-3,1.10771,R,ugm-3,79.37897,R,ugm-3,0.900,R,ugm-3 (BAM)
04-01-2023,03:00,0.25187,R,ugm-3,0.76767,R,ugm-3,1.15387,R,ugm-3,79.87789,R,ugm-3,0.900,R,ugm-3 (BAM)
04-01-2023,04:00,0.06297,R,ugm-3,0.87270,R,ugm-3,0.96925,R,ugm-3,78.78026,R,ugm-3,2.900,R,ugm-3 (BAM)
04-01-2023,05:00,0.18890,R,ugm-3,0.67960,R,ugm-3,0.96925,R,ugm-3,78.08176,R,ugm-3,3.900,R,ugm-3 (BAM)
04-01-2023,06:00,0.31484,R,ugm-3,2.14808,R,ugm-3,2.63082,R,ugm-3,75.78671,R,ugm-3,2.900,R,ugm-3 (BAM)
04-01-2023,07:00,0.28335,R,ugm-3,3.30406,R,ugm-3,3.73853,R,ugm-3,76.53510,R,ugm-3,0.900,R,ugm-3 (BAM)
04-01-2023,08:00,0.53522,R,ugm-3,7.11795,R,ugm-3,7.93861,R,ugm-3,75.48735,R,ugm-3,0.900,R,ugm-3 (BAM)
04-01-2023,09:00,0.62967,R,ugm-3,9.09624,R,ugm-3,10.06173,R,ugm-3,76.38542,R,ugm-3,2.900,R,ugm-3 (BAM)
04-01-2023,10:00,0.72413,R,ugm-3,8.67449,R,ugm-3,9.78480,R,ugm-3,76.68477,R,ugm-3,6.900,R,ugm-3 (BAM)
04-01-2023,11:00,0.37781,R,ugm-3,6.25161,R,ugm-3,6.83090,R,ugm-3,72.99273,R,ugm-3,8.900,R,ugm-3 (BAM)
04-01-2023,12:00,0.56671,R,ugm-3,6.74659,R,ugm-3,7.61553,R,ugm-3,71.94499,R,ugm-3,12.900,R,ugm-3 (BAM)
04-01-2023,13:00,0.69264,R,ugm-3,5.49194,R,ugm-3,6.55397,R,ugm-3,75.13811,R,ugm-3,5.900,R,ugm-3 (BAM)
04-01-2023,14:00,0.62967,R,ugm-3,6.14234,R,ugm-3,7.10783,R,ugm-3,71.14671,R,ugm-3,8.900,R,ugm-3 (BAM)
04-01-2023,15:00,0.69264,R,ugm-3,6.36888,R,ugm-3,7.43091,R,ugm-3,71.54585,R,ugm-3,6.900,R,ugm-3 (BAM)
04-01-2023,16:00,0.78709,R,ugm-3,8.80872,R,ugm-3,10.01558,R,ugm-3,65.75832,R,ugm-3,5.900,R,ugm-3 (BAM)
04-01-2023,17:00,0.75561,R,ugm-3,7.38004,R,ugm-3,8.53862,R,ugm-3,69.64993,R,ugm-3,5.900,R,ugm-3 (BAM)
04-01-2023,18:00,0.94451,R,ugm-3,8.38273,R,ugm-3,9.83096,R,ugm-3,65.75832,R,ugm-3,7.900,R,ugm-3 (BAM)
04-01-2023,19:00,0.59819,R,ugm-3,4.94444,R,ugm-3,5.86165,R,ugm-3,67.55445,R,ugm-3,11.900,R,ugm-3 (BAM)
04-01-2023,20:00,0.50374,R,ugm-3,4.21232,R,ugm-3,4.98471,R,ugm-3,65.75832,R,ugm-3,2.900,R,ugm-3 (BAM)
04-01-2023,21:00,0.37781,R,ugm-3,3.57463,R,ugm-3,4.15393,R,ugm-3,64.01208,R,ugm-3,4.900,R,ugm-3 (BAM)
04-01-2023,22:00,0.34632,R,ugm-3,4.63831,R,ugm-3,5.16933,R,ugm-3,64.41122,R,ugm-3,10.900,R,ugm-3 (BAM)
04-01-2023,23:00,0.28335,R,ugm-3,3.16560,R,ugm-3,3.60007,R,ugm-3,64.91014,R,ugm-3,6.900,R,ugm-3 (BAM)
04-01-2023,24:00,0.22039,R,ugm-3,3.44677,R,ugm-3,3.78469,R,ugm-3,61.41767,R,ugm-3,7.900,R,ugm-3 (BAM)
05-01-2023,01:00,0.28349,R,ugm-3,2.28759,R,ugm-3,2.72228,R,ugm-3,63.36348,R,ugm-3,8.900,R,ugm-3 (BAM)
05-01-2023,02:00,0.37799,R,ugm-3,1.40445,R,ugm-3,1.98403,R,ugm-3,66.20735,R,ugm-3,7.900,R,ugm-3 (BAM)
05-01-2023,03:00,0.25200,R,ugm-3,0.85940,R,ugm-3,1.24579,R,ugm-3,65.55875,R,ugm-3,8.900,R,ugm-3 (BAM)
05-01-2023,04:00,0.22050,R,ugm-3,1.46138,R,ugm-3,1.79947,R,ugm-3,61.06842,R,ugm-3,9.900,R,ugm-3 (BAM)
05-01-2023,05:00,0.15750,R,ugm-3,2.75762,R,ugm-3,2.99912,R,ugm-3,57.22670,R,ugm-3,10.900,R,ugm-3 (BAM)
05-01-2023,06:00,0.34649,R,ugm-3,3.39064,R,ugm-3,3.92192,R,ugm-3,58.92304,R,ugm-3,11.900,R,ugm-3 (BAM)
05-01-2023,07:00,0.34649,R,ugm-3,6.66660,R,ugm-3,7.19788,R,ugm-3,55.13121,R,ugm-3,11.900,R,ugm-3 (BAM)
05-01-2023,08:00,1.10248,R,ugm-3,14.92005,R,ugm-3,16.61049,R,ugm-3,47.09852,R,ugm-3,9.900,R,ugm-3 (BAM)
05-01-2023,09:00,1.00798,R,ugm-3,14.60354,R,ugm-3,16.14909,R,ugm-3,49.99229,R,ugm-3,5.900,R,ugm-3 (BAM)
05-01-2023,10:00,0.62999,R,ugm-3,9.46173,R,ugm-3,10.42770,R,ugm-3,58.87315,R,ugm-3,3.900,R,ugm-3 (BAM)
05-01-2023,11:00,0.62999,R,ugm-3,7.43156,R,ugm-3,8.39753,R,ugm-3,59.67143,R,ugm-3,4.900,R,ugm-3 (BAM)
05-01-2023,12:00,0.56699,R,ugm-3,6.74377,R,ugm-3,7.61314,R,ugm-3,61.81681,R,ugm-3,1.900,R,ugm-3 (BAM)
05-01-2023,13:00,0.78748,R,ugm-3,7.60533,R,ugm-3,8.81279,R,ugm-3,64.26154,R,ugm-3,1.900,R,ugm-3 (BAM)
05-01-2023,14:00,0.59849,R,ugm-3,6.97231,R,ugm-3,7.88998,R,ugm-3,65.72505,R,ugm-3,-0.100,R,ugm-3 (BAM)
05-01-2023,15:00,0.40949,R,ugm-3,6.57000,R,ugm-3,7.19788,R,ugm-3,68.25294,R,ugm-3,0.900,R,ugm-3 (BAM)
05-01-2023,16:00,0.40949,R,ugm-3,7.16982,R,ugm-3,7.79770,R,ugm-3,67.25509,R,ugm-3,0.900,R,ugm-3 (BAM)
05-01-2023,17:00,0.37799,R,ugm-3,7.54110,R,ugm-3,8.12068,R,ugm-3,64.71057,R,ugm-3,-0.100,R,ugm-3 (BAM)
05-01-2023,18:00,0.53549,R,ugm-3,8.63768,R,ugm-3,9.45875,R,ugm-3,67.15531,R,ugm-3,3.900,R,ugm-3 (BAM)
05-01-2023,19:00,0.50399,R,ugm-3,7.02493,R,ugm-3,7.79770,R,ugm-3,69.94929,R,ugm-3,2.900,R,ugm-3 (BAM)
05-01-2023,20:00,0.15750,R,ugm-3,5.06464,R,ugm-3,5.30613,R,ugm-3,75.08821,R,ugm-3,2.900,R,ugm-3 (BAM)
05-01-2023,21:00,0.28349,R,ugm-3,4.31776,R,ugm-3,4.75245,R,ugm-3,74.48950,R,ugm-3,4.900,R,ugm-3 (BAM)
05-01-2023,22:00,0.37799,R,ugm-3,5.46479,R,ugm-3,6.04437,R,ugm-3,72.44391,R,ugm-3,3.900,R,ugm-3 (BAM)
05-01-2023,23:00,0.37799,R,ugm-3,4.77269,R,ugm-3,5.35227,R,ugm-3,71.99488,R,ugm-3,5.900,R,ugm-3 (BAM)
05-01-2023,24:00,0.12600,R,ugm-3,2.80592,R,ugm-3,2.99912,R,ugm-3,76.98413,R,ugm-3,5.900,R,ugm-3 (BAM)
06-01-2023,01:00,0.15758,R,ugm-3,1.74180,R,ugm-3,1.98341,R,ugm-3,82.17295,R,ugm-3,1.900,R,ugm-3 (BAM)
06-01-2023,02:00,0.22061,R,ugm-3,0.58426,R,ugm-3,0.92252,R,ugm-3,85.91489,R,ugm-3,-0.100,R,ugm-3 (BAM)
06-01-2023,03:00,0.22061,R,ugm-3,0.49201,R,ugm-3,0.83026,R,ugm-3,83.66972,R,ugm-3,0.900,R,ugm-3 (BAM)
06-01-2023,04:00,0.25212,R,ugm-3,2.93448,R,ugm-3,3.32105,R,ugm-3,78.63058,R,ugm-3,1.900,R,ugm-3 (BAM)
06-01-2023,05:00,0.25212,R,ugm-3,2.01196,R,ugm-3,2.39854,R,ugm-3,78.13166,R,ugm-3,1.900,R,ugm-3 (BAM)
06-01-2023,06:00,0.37818,R,ugm-3,3.01794,R,ugm-3,3.59781,R,ugm-3,76.03617,R,ugm-3,-0.100,R,ugm-3 (BAM)
06-01-2023,07:00,0.31515,R,ugm-3,5.51313,R,ugm-3,5.99635,R,ugm-3,72.39402,R,ugm-3,-0.100,R,ugm-3 (BAM)
06-01-2023,08:00,0.75636,R,ugm-3,11.61710,R,ugm-3,12.77684,R,ugm-3,64.16176,R,ugm-3,1.900,R,ugm-3 (BAM)
06-01-2023,09:00,0.75636,R,ugm-3,11.80161,R,ugm-3,12.96134,R,ugm-3,65.20950,R,ugm-3,2.900,R,ugm-3 (BAM)
06-01-2023,10:00,0.97696,R,ugm-3,9.98733,R,ugm-3,11.48532,R,ugm-3,69.30068,R,ugm-3,4.900,R,ugm-3 (BAM)
06-01-2023,11:00,0.59878,R,ugm-3,7.38451,R,ugm-3,8.30264,R,ugm-3,69.10111,R,ugm-3,0.900,R,ugm-3 (BAM)
06-01-2023,12:00,0.56727,R,ugm-3,8.40148,R,ugm-3,9.27128,R,ugm-3,68.95144,R,ugm-3,0.900,R,ugm-3 (BAM)
06-01-2023,13:00,0.72484,R,ugm-3,10.55841,R,ugm-3,11.66982,R,ugm-3,68.70197,R,ugm-3,1.900,R,ugm-3 (BAM)
06-01-2023,14:00,0.66181,R,ugm-3,9.87091,R,ugm-3,10.88568,R,ugm-3,70.64778,R,ugm-3,3.900,R,ugm-3 (BAM)
06-01-2023,15:00,,,,,,,,,,,,,,,
06-01-2023,16:00,0.88242,R,ugm-3,16.77440,R,ugm-3,18.12743,R,ugm-3,61.21810,R,ugm-3,6.900,R,ugm-3 (BAM)
06-01-2023,17:00,0.66181,R,ugm-3,23.01676,R,ugm-3,24.03152,R,ugm-3,56.52820,R,ugm-3,18.900,R,ugm-3 (BAM)
06-01-2023,18:00,0.69333,R,ugm-3,17.15659,R,ugm-3,18.21968,R,ugm-3,61.16821,R,ugm-3,3.900,R,ugm-3 (BAM)
06-01-2023,19:00,0.63030,R,ugm-3,16.42297,R,ugm-3,17.38941,R,ugm-3,59.77122,R,ugm-3,3.900,R,ugm-3 (BAM)
06-01-2023,20:00,0.37818,R,ugm-3,8.46078,R,ugm-3,9.04065,R,ugm-3,66.15746,R,ugm-3,3.900,R,ugm-3 (BAM)
06-01-2023,21:00,0.37818,R,ugm-3,5.37036,R,ugm-3,5.95022,R,ugm-3,71.24649,R,ugm-3,4.900,R,ugm-3 (BAM)
06-01-2023,22:00,0.25212,R,ugm-3,3.99537,R,ugm-3,4.38195,R,ugm-3,75.83660,R,ugm-3,6.900,R,ugm-3 (BAM)
06-01-2023,23:00,0.25212,R,ugm-3,2.93448,R,ugm-3,3.32105,R,ugm-3,76.08606,R,ugm-3,3.900,R,ugm-3 (BAM)
06-01-2023,24:00,0.29414,R,ugm-3,2.07053,R,ugm-3,2.52154,R,ugm-3,75.48735,R,ugm-3,3.900,R,ugm-3 (BAM)
07-01-2023,01:00,0.20999,R,ugm-3,1.83045,R,ugm-3,2.15244,R,ugm-3,74.77223,R,ugm-3,1.900,R,ugm-3 (BAM)
07-01-2023,02:00,0.22049,R,ugm-3,0.95338,R,ugm-3,1.29146,R,ugm-3,75.53725,R,ugm-3,8.900,R,ugm-3 (BAM)
07-01-2023,03:00,0.22049,R,ugm-3,0.90725,R,ugm-3,1.24534,R,ugm-3,76.98413,R,ugm-3,6.900,R,ugm-3 (BAM)
07-01-2023,04:00,0.15750,R,ugm-3,1.00385,R,ugm-3,1.24534,R,ugm-3,77.63273,R,ugm-3,4.900,R,ugm-3 (BAM)
07-01-2023,05:00,0.06300,R,ugm-3,1.01037,R,ugm-3,1.10697,R,ugm-3,78.03187,R,ugm-3,4.900,R,ugm-3 (BAM)
07-01-2023,06:00,0.15750,R,ugm-3,1.60346,R,ugm-3,1.84495,R,ugm-3,78.33123,R,ugm-3,1.900,R,ugm-3 (BAM)
07-01-2023,07:00,0.12600,R,ugm-3,2.06687,R,ugm-3,2.26006,R,ugm-3,75.83660,R,ugm-3,1.900,R,ugm-3 (BAM)
07-01-2023,08:00,0.34649,R,ugm-3,2.42064,R,ugm-3,2.95192,R,ugm-3,73.79101,R,ugm-3,4.900,R,ugm-3 (BAM)
07-01-2023,09:00,0.31499,R,ugm-3,3.43753,R,ugm-3,3.92051,R,ugm-3,72.99273,R,ugm-3,5.900,R,ugm-3 (BAM)
07-01-2023,10:00,0.44099,R,ugm-3,4.76642,R,ugm-3,5.44259,R,ugm-3,68.15316,R,ugm-3,3.900,R,ugm-3 (BAM)
07-01-2023,11:00,0.37799,R,ugm-3,5.23201,R,ugm-3,5.81158,R,ugm-3,68.10326,R,ugm-3,3.900,R,ugm-3 (BAM)
07-01-2023,12:00,0.31499,R,ugm-3,5.14411,R,ugm-3,5.62709,R,ugm-3,69.30068,R,ugm-3,1.900,R,ugm-3 (BAM)
07-01-2023,13:00,0.37799,R,ugm-3,5.32425,R,ugm-3,5.90383,R,ugm-3,73.04262,R,ugm-3,1.900,R,ugm-3 (BAM)
07-01-2023,14:00,0.47249,R,ugm-3,6.74756,R,ugm-3,7.47203,R,ugm-3,70.99703,R,ugm-3,2.900,R,ugm-3 (BAM)
07-01-2023,15:00,0.40949,R,ugm-3,6.01393,R,ugm-3,6.64181,R,ugm-3,74.83875,R,ugm-3,2.900,R,ugm-3 (BAM)
07-01-2023,16:00,0.28349,R,ugm-3,7.08348,R,ugm-3,7.51816,R,ugm-3,77.58284,R,ugm-3,3.900,R,ugm-3 (BAM)
07-01-2023,17:00,0.25199,R,ugm-3,7.22402,R,ugm-3,7.61041,R,ugm-3,75.98628,R,ugm-3,2.900,R,ugm-3 (BAM)
07-01-2023,18:00,0.25199,R,ugm-3,3.94924,R,ugm-3,4.33563,R,ugm-3,89.30758,R,ugm-3,3.900,R,ugm-3 (BAM)
07-01-2023,19:00,0.34649,R,ugm-3,5.23418,R,ugm-3,5.76546,R,ugm-3,82.97123,R,ugm-3,3.900,R,ugm-3 (BAM)
07-01-2023,20:00,0.34649,R,ugm-3,5.51092,R,ugm-3,6.04220,R,ugm-3,78.08176,R,ugm-3,1.900,R,ugm-3 (BAM)
07-01-2023,21:00,0.28349,R,ugm-3,3.80870,R,ugm-3,4.24338,R,ugm-3,81.42456,R,ugm-3,1.900,R,ugm-3 (BAM)
07-01-2023,22:00,0.06300,R,ugm-3,2.99369,R,ugm-3,3.09029,R,ugm-3,84.31833,R,ugm-3,2.900,R,ugm-3 (BAM)
07-01-2023,23:00,0.34649,R,ugm-3,3.48148,R,ugm-3,4.01276,R,ugm-3,82.32263,R,ugm-3,4.900,R,ugm-3 (BAM)
07-01-2023,24:00,0.22049,R,ugm-3,2.19872,R,ugm-3,2.53680,R,ugm-3,81.02542,R,ugm-3,10.900,R,ugm-3 (BAM)
08-01-2023,01:00,0.34632,R,ugm-3,1.49834,R,ugm-3,2.02935,R,ugm-3,75.58714,R,ugm-3,5.900,R,ugm-3 (BAM)
08-01-2023,02:00,0.25187,R,ugm-3,1.32031,R,ugm-3,1.70650,R,ugm-3,73.59144,R,ugm-3,8.900,R,ugm-3 (BAM)
08-01-2023,03:00,0.22038,R,ugm-3,0.99961,R,ugm-3,1.33753,R,ugm-3,73.14241,R,ugm-3,5.900,R,ugm-3 (BAM)
08-01-2023,04:00,0.18890,R,ugm-3,0.58667,R,ugm-3,0.87631,R,ugm-3,74.73897,R,ugm-3,4.900,R,ugm-3 (BAM)
08-01-2023,05:00,0.31484,R,ugm-3,0.62418,R,ugm-3,1.10692,R,ugm-3,75.83660,R,ugm-3,4.900,R,ugm-3 (BAM)
08-01-2023,06:00,0.22038,R,ugm-3,1.46083,R,ugm-3,1.79874,R,ugm-3,78.68047,R,ugm-3,1.900,R,ugm-3 (BAM)
08-01-2023,07:00,0.28335,R,ugm-3,1.31815,R,ugm-3,1.75262,R,ugm-3,78.63058,R,ugm-3,1.900,R,ugm-3 (BAM)
08-01-2023,08:00,0.31484,R,ugm-3,2.69965,R,ugm-3,3.18239,R,ugm-3,77.13381,R,ugm-3,1.900,R,ugm-3 (BAM)
08-01-2023,09:00,0.28335,R,ugm-3,3.30138,R,ugm-3,3.73585,R,ugm-3,75.63703,R,ugm-3,2.900,R,ugm-3 (BAM)
08-01-2023,10:00,0.50374,R,ugm-3,6.42258,R,ugm-3,7.19497,R,ugm-3,73.39187,R,ugm-3,4.900,R,ugm-3 (BAM)
08-01-2023,11:00,0.56670,R,ugm-3,7.75580,R,ugm-3,8.62473,R,ugm-3,77.53295,R,ugm-3,3.900,R,ugm-3 (BAM)
08-01-2023,12:00,0.44077,R,ugm-3,6.47301,R,ugm-3,7.14885,R,ugm-3,78.48090,R,ugm-3,2.900,R,ugm-3 (BAM)
08-01-2023,13:00,0.78709,R,ugm-3,6.58770,R,ugm-3,7.79455,R,ugm-3,82.17295,R,ugm-3,4.900,R,ugm-3 (BAM)
08-01-2023,14:00,0.50374,R,ugm-3,7.02217,R,ugm-3,7.79455,R,ugm-3,79.42886,R,ugm-3,2.900,R,ugm-3 (BAM)
08-01-2023,15:00,0.47225,R,ugm-3,6.70147,R,ugm-3,7.42557,R,ugm-3,79.76148,R,ugm-3,2.900,R,ugm-3 (BAM)
08-01-2023,16:00,0.81857,R,ugm-3,11.65892,R,ugm-3,12.91404,R,ugm-3,71.19660,R,ugm-3,3.900,R,ugm-3 (BAM)
08-01-2023,17:00,0.78709,R,ugm-3,12.49126,R,ugm-3,13.69811,R,ugm-3,71.99488,R,ugm-3,5.900,R,ugm-3 (BAM)
08-01-2023,18:00,0.40929,R,ugm-3,4.76866,R,ugm-3,5.39622,R,ugm-3,86.06456,R,ugm-3,3.900,R,ugm-3 (BAM)
08-01-2023,19:00,0.34632,R,ugm-3,5.55704,R,ugm-3,6.08805,R,ugm-3,85.06671,R,ugm-3,3.900,R,ugm-3 (BAM)
08-01-2023,20:00,0.37780,R,ugm-3,5.64713,R,ugm-3,6.22641,R,ugm-3,73.79101,R,ugm-3,1.900,R,ugm-3 (BAM)
08-01-2023,21:00,0.37780,R,ugm-3,7.72260,R,ugm-3,8.30188,R,ugm-3,66.70627,R,ugm-3,3.900,R,ugm-3 (BAM)
08-01-2023,22:00,0.44077,R,ugm-3,12.97615,R,ugm-3,13.65199,R,ugm-3,54.68218,R,ugm-3,5.900,R,ugm-3 (BAM)
08-01-2023,23:00,0.47225,R,ugm-3,13.02012,R,ugm-3,13.74423,R,ugm-3,49.74282,R,ugm-3,6.900,R,ugm-3 (BAM)
08-01-2023,24:00,0.53522,R,ugm-3,9.23385,R,ugm-3,10.05450,R,ugm-3,50.59100,R,ugm-3,8.900,R,ugm-3 (BAM)
09-01-2023,01:00,0.56642,R,ugm-3,7.15629,R,ugm-3,8.02479,R,ugm-3,52.13766,R,ugm-3,3.900,R,ugm-3 (BAM)
09-01-2023,02:00,0.37761,R,ugm-3,3.57176,R,ugm-3,4.15075,R,ugm-3,61.31788,R,ugm-3,3.900,R,ugm-3 (BAM)
09-01-2023,03:00,0.31468,R,ugm-3,1.73124,R,ugm-3,2.21374,R,ugm-3,68.15316,R,ugm-3,2.900,R,ugm-3 (BAM)
09-01-2023,04:00,0.25174,R,ugm-3,1.22818,R,ugm-3,1.61418,R,ugm-3,73.14241,R,ugm-3,3.900,R,ugm-3 (BAM)
09-01-2023,05:00,0.22027,R,ugm-3,2.24494,R,ugm-3,2.58269,R,ugm-3,73.04262,R,ugm-3,1.900,R,ugm-3 (BAM)
09-01-2023,06:00,0.44055,R,ugm-3,2.09167,R,ugm-3,2.76717,R,ugm-3,77.23359,R,ugm-3,6.900,R,ugm-3 (BAM)
09-01-2023,07:00,0.50348,R,ugm-3,8.45190,R,ugm-3,9.22390,R,ugm-3,67.45466,R,ugm-3,4.900,R,ugm-3 (BAM)
09-01-2023,08:00,0.69229,R,ugm-3,11.99032,R,ugm-3,13.05181,R,ugm-3,67.50455,R,ugm-3,1.900,R,ugm-3 (BAM)
09-01-2023,09:00,0.88110,R,ugm-3,9.80992,R,ugm-3,11.16092,R,ugm-3,68.30283,R,ugm-3,1.900,R,ugm-3 (BAM)
09-01-2023,10:00,0.84963,R,ugm-3,8.84354,R,ugm-3,10.14629,R,ugm-3,71.19660,R,ugm-3,2.900,R,ugm-3 (BAM)
09-01-2023,11:00,0.72376,R,ugm-3,9.17490,R,ugm-3,10.28465,R,ugm-3,68.00348,R,ugm-3,4.900,R,ugm-3 (BAM)
09-01-2023,12:00,0.59789,R,ugm-3,7.47700,R,ugm-3,8.39375,R,ugm-3,73.84090,R,ugm-3,1.900,R,ugm-3 (BAM)
09-01-2023,13:00,0.84963,R,ugm-3,7.45996,R,ugm-3,8.76270,R,ugm-3,74.83875,R,ugm-3,2.900,R,ugm-3 (BAM)
09-01-2023,14:00,0.50348,R,ugm-3,5.54637,R,ugm-3,6.31837,R,ugm-3,74.58929,R,ugm-3,4.900,R,ugm-3 (BAM)
09-01-2023,15:00,0.56642,R,ugm-3,6.55674,R,ugm-3,7.42524,R,ugm-3,72.54370,R,ugm-3,3.900,R,ugm-3 (BAM)
09-01-2023,16:00,0.72376,R,ugm-3,8.48311,R,ugm-3,9.59285,R,ugm-3,71.64563,R,ugm-3,6.900,R,ugm-3 (BAM)
09-01-2023,17:00,0.75523,R,ugm-3,9.68008,R,ugm-3,10.83808,R,ugm-3,69.40047,R,ugm-3,4.900,R,ugm-3 (BAM)
09-01-2023,18:00,1.06990,R,ugm-3,14.13237,R,ugm-3,15.77286,R,ugm-3,63.71272,R,ugm-3,6.900,R,ugm-3 (BAM)
09-01-2023,19:00,1.29018,R,ugm-3,11.21193,R,ugm-3,13.19017,R,ugm-3,69.50025,R,ugm-3,3.900,R,ugm-3 (BAM)
09-01-2023,20:00,1.35311,R,ugm-3,10.93095,R,ugm-3,13.00569,R,ugm-3,66.75617,R,ugm-3,4.900,R,ugm-3 (BAM)
09-01-2023,21:00,0.53495,R,ugm-3,5.26753,R,ugm-3,6.08777,R,ugm-3,74.09036,R,ugm-3,6.900,R,ugm-3 (BAM)
09-01-2023,22:00,0.56642,R,ugm-3,3.83569,R,ugm-3,4.70419,R,ugm-3,73.79101,R,ugm-3,7.900,R,ugm-3 (BAM)
09-01-2023,23:00,0.28321,R,ugm-3,3.57815,R,ugm-3,4.01240,R,ugm-3,70.84735,R,ugm-3,11.900,R,ugm-3 (BAM)
09-01-2023,24:00,0.47202,R,ugm-3,2.91969,R,ugm-3,3.64344,R,ugm-3,69.64993,R,ugm-3,8.900,R,ugm-3 (BAM)
10-01-2023,01:00,,,,,,,,,,67.05552,R,ugm-3,4.900,R,ugm-3 (BAM)
10-01-2023,02:00,0.46130,R,ugm-3,4.33486,R,ugm-3,5.04217,R,ugm-3,65.10971,R,ugm-3,4.900,R,ugm-3 (BAM)
10-01-2023,03:00,0.59759,R,ugm-3,4.01827,R,ugm-3,4.93456,R,ugm-3,63.66283,R,ugm-3,3.900,R,ugm-3 (BAM)
10-01-2023,04:00,0.34597,R,ugm-3,4.31184,R,ugm-3,4.84233,R,ugm-3,61.66713,R,ugm-3,6.900,R,ugm-3 (BAM)
10-01-2023,05:00,0.44033,R,ugm-3,4.72058,R,ugm-3,5.39573,R,ugm-3,61.86670,R,ugm-3,4.900,R,ugm-3 (BAM)
10-01-2023,06:00,0.34597,R,ugm-3,6.61771,R,ugm-3,7.14820,R,ugm-3,62.06627,R,ugm-3,5.900,R,ugm-3 (BAM)
10-01-2023,07:00,0.40888,R,ugm-3,7.72032,R,ugm-3,8.34725,R,ugm-3,63.91229,R,ugm-3,7.900,R,ugm-3 (BAM)
10-01-2023,08:00,0.66049,R,ugm-3,12.68413,R,ugm-3,13.69687,R,ugm-3,64.31143,R,ugm-3,6.900,R,ugm-3 (BAM)
10-01-2023,09:00,0.62904,R,ugm-3,15.31493,R,ugm-3,16.27944,R,ugm-3,65.20950,R,ugm-3,8.900,R,ugm-3 (BAM)
10-01-2023,10:00,1.10082,R,ugm-3,14.36096,R,ugm-3,16.04885,R,ugm-3,72.34413,R,ugm-3,2.900,R,ugm-3 (BAM)
10-01-2023,11:00,0.40888,R,ugm-3,7.30526,R,ugm-3,7.93219,R,ugm-3,79.57854,R,ugm-3,-0.100,R,ugm-3 (BAM)
10-01-2023,12:00,0.44033,R,ugm-3,8.31773,R,ugm-3,8.99289,R,ugm-3,73.44176,R,ugm-3,-0.100,R,ugm-3 (BAM)
10-01-2023,13:00,0.84920,R,ugm-3,11.05737,R,ugm-3,12.35946,R,ugm-3,64.06197,R,ugm-3,0.900,R,ugm-3 (BAM)
10-01-2023,14:00,0.59759,R,ugm-3,10.05965,R,ugm-3,10.97594,R,ugm-3,56.22885,R,ugm-3,0.900,R,ugm-3 (BAM)
10-01-2023,15:00,0.56614,R,ugm-3,7.15637,R,ugm-3,8.02443,R,ugm-3,55.68003,R,ugm-3,2.900,R,ugm-3 (BAM)